Вернуться в каталог

IRIDIUM 112

АктивенСвязьPO
NORAD 41925·PAYLOAD·🇺🇸 United States

Запущен Jan 14, 2017 с Vandenberg Space Force Base

Loading…

Ближайшие Пролёты (ближайшие 24 часа)

TLE

СвежийSource: CelesTrak SupGP

Эпоха: Sep 14, 2026, 21:44 UTC

1 41925C 17003J   26257.90590278  .00002871  00000+0  10266-2 0  2575
2 41925  86.3945  50.7613 0002179  94.7448 163.6109 14.34216774    11

Отслеживайте IRIDIUM 112 в реальном времени с AllMySat

Download on the App Store